This demonstration page uses our WeatherBlox Daily Observations layout. Learn more.

Left ArrowRight Arrow

31.84235, -102.49876

Hourly Observations for August 25, 2017

Temp ( °F °C ) Dew Point ( °F °C ) Humidity (%) Winds ( mph kmh ) Pressure ( in mb ) Visibility ( mi km ) Precip ( " mm )
12:21 am 00:21 Cloudy with Thunderstorms 78 25.6 65 18.3 64 64 W 13 20 29.83 1010 10 16 0.00 0.00
12:36 am 00:36 Cloudy with Light Rain 78 25.6 66 18.9 67 67 VRB 7 11 29.83 1010 10 16 0.00 0.03
12:45 am 00:45 Cloudy with Thunderstorms 75 23.9 68 20 79 79 S 10 17 29.85 1011 8 13 0.00 0.03
12:53 am 00:53 Cloudy with Thunderstorms 73 22.8 69 20.6 87 87 WSW 8 13 29.86 1011 7 11 0.00 0.03
1:53 am 01:53 Cloudy with Rain 71 21.7 68 20 90 90 ENE 8 13 29.86 1011 5 8 0.00 0.00
2:14 am 02:14 Cloudy with Thunderstorms 72 22.2 68 20 87 87 ENE 13 20 29.85 1011 7 11 0.00 0.00
2:32 am 02:32 Cloudy with Light Rain 71 21.7 68 20 90 90 ENE 12 19 29.85 1011 9 14 0.00 0.00
2:50 am 02:50 Cloudy with Nearby Thunderstorms 73 23 68 20 83 83 E 13 20 29.85 1011 8 13 0.00 0.00
2:53 am 02:53 Cloudy with Nearby Thunderstorms 72 22.2 68 20 87 87 E 13 20 29.85 1011 7 11 0.00 0.00
3:08 am 03:08 Cloudy with Light Rain 72 22.2 68 20 87 87 E 14 22 29.85 1011 10 16 0.00 0.00
3:53 am 03:53 Mostly Cloudy 72 22.2 68 20 87 87 E 9 15 29.84 1011 10 16 0.00 0.00
4:53 am 04:53 Cloudy 72 22.2 69 20.6 91 91 E 5 7 29.84 1010 10 16 0.00 0.00
5:53 am 05:53 Partly Cloudy 71 21.7 69 20.6 94 94 E 5 7 29.85 1011 10 16 0.00 0.00
6:53 am 06:53 Mostly Clear 71 21.7 68 20 90 90 ESE 3 6 29.86 1011 10 16 0.00 0.00
7:53 am 07:53 Sunny 70 21.1 68 20 93 93 undefined N/A 29.88 1012 10 16 0.00 0.00
8:53 am 08:53 Sunny 73 22.8 68 20 84 84 SSE 7 11 29.90 1012 10 16 0.00 0.00
9:53 am 09:53 Mostly Cloudy with Light Rain 76 24.4 68 20 77 77 SE 7 11 29.91 1013 10 16 0.00 0.03
10:53 am 10:53 Sunny 79 26.1 67 19.4 67 67 SSW 5 7 29.90 1013 10 16 0.01 0.25
11:26 am 11:26 Mostly Cloudy 80 26.7 67 19.4 64 64 SSE 6 9 29.88 1012 10 16 0.00 0.00
11:34 am 11:34 Partly Cloudy 80 26.7 66 18.9 62 62 SSE 3 6 29.88 1012 10 16 0.00 0.00
11:45 am 11:45 Mostly Cloudy 80 26.7 66 18.9 62 62 Calm 29.88 1012 10 16 0.00 0.00
11:53 am 11:53 Mostly Cloudy 81 27.2 66 18.9 61 61 Calm 29.90 1013 10 16 0.00 0.00
12:53 pm 12:53 Mostly Sunny 83 28.3 66 18.9 57 57 Calm 29.89 1012 10 16 0.00 0.00
1:53 pm 13:53 Sunny 85 29.4 65 18.3 51 51 VRB 5 7 29.87 1011 10 16 0.00 0.00
2:53 pm 14:53 Sunny 87 30.6 65 18.3 48 48 SSE 3 6 29.84 1011 10 16 0.00 0.00
3:53 pm 15:53 Sunny with Nearby Thunderstorms 88 31.1 63 17.2 43 43 ENE 5 7 29.83 1010 10 16 0.00 0.00
4:13 pm 16:13 Mostly Sunny 88 31.1 64 17.8 45 45 E 10 17 29.74 1007 10 16 0.00 0.00
4:20 pm 16:20 Partly Cloudy with Nearby Thunderstorms 88 31.1 63 17.2 43 43 undefined N/A 29.74 1007 10 16 0.00 0.00
4:37 pm 16:37 Partly Cloudy 87 30.6 64 17.8 46 46 VRB 5 7 29.74 1007 10 16 0.00 0.00
4:49 pm 16:49 Mostly Cloudy with Nearby Thunderstorms 88 31 64 18 46 46 ENE 12 19 29.74 1007 10 16 0.00 0.00
4:53 pm 16:53 Mostly Cloudy with Nearby Thunderstorms 86 30 64 17.8 48 48 ENE 10 17 29.83 1010 10 16 0.00 0.00
5:04 pm 17:04 Mostly Cloudy 86 30 64 17.8 48 48 E 7 11 29.77 1008 10 16 0.00 0.00
5:37 pm 17:37 Cloudy with Nearby Thunderstorms 72 22.2 66 18.9 82 82 E 12 19 29.85 1011 3 4 0.06 1.52
5:49 pm 17:49 Cloudy with Nearby Thunderstorms 73 23 63 17 69 69 VRB 5 7 29.85 1011 1 2 0.18 4.57
5:53 pm 17:53 Cloudy with Strong Thunderstorms 74 23.3 65 18.3 74 74 WSW 6 9 29.88 1012 1 2 0.25 6.35
6:10 pm 18:10 Cloudy with Thunderstorms 72 22.2 68 20 87 87 WSW 12 19 29.85 1011 3 5 0.09 2.29
6:30 pm 18:30 Cloudy with Nearby Thunderstorms 73 22.8 68 20 84 84 W 7 11 29.85 1011 10 16 0.09 2.29
6:53 pm 18:53 Cloudy with Nearby Thunderstorms 73 22.8 69 20.6 87 87 SSE 6 9 29.89 1012 6 10 0.11 2.79
7:29 pm 19:29 Cloudy 76 24.4 69 20.6 79 79 E 8 13 29.85 1011 10 16 0.01 0.25
7:53 pm 19:53 Mostly Cloudy 75 23.9 69 20.6 82 82 ENE 5 7 29.90 1012 10 16 0.01 0.25
8:53 pm 20:53 Partly Cloudy 75 23.9 69 20.6 82 82 Calm 29.90 1013 10 16 0.00 0.00
9:53 pm 21:53 Mostly Cloudy 74 23.3 70 21.1 88 88 E 6 9 29.93 1013 10 16 0.00 0.00
10:53 pm 22:53 Clear 73 22.8 69 20.6 87 87 E 9 15 29.94 1014 10 16 0.00 0.00
11:53 pm 23:53 Clear 72 22.2 69 20.6 91 91 E 7 11 29.95 1014 10 16 0.00 0.00

Powered by AerisWeather